Miscellaneous Local Product
Issued by NWS North Platte, NE

Home | Current Version | Previous Version | Text Only | Print | Product List | Glossary On
Versions: 1 2 3 4 5 6 7 8 9 10 11 12 13 14 15 16 17 18 19 20 21 22 23 24 25 26 27 28 29 30 31 32 33 34 35 36 37 38 39 40 41 42 43 44 45 46 47 48 49 50
544
AXUS43 KLBF 081810
MISLBF


WESTERN AND NORTH CENTRAL NEBRASKA HOURLY WEATHER ROUNDUP
NATIONAL WEATHER SERVICE NORTH PLATTE NE
1200 PM CST MON FEB 08 2016

NOTE: "FAIR" INDICATES FEW OR NO CLOUDS BELOW 12,000 FEET WITH NO
SIGNIFICANT WEATHER AND/OR OBSTRUCTIONS TO VISIBILITY.

NOTE: STATIONS NOT REPORTING VARIABLES SUCH AS SKY/WEATHER OR
PRESSURE ARE PROVIDED BY THE NEBRASKA DEPARTMENT OF
ROADS...RAWS...AND APRS NETWORKS...AND ARE NOT UNDER
NATIONAL WEATHER SERVICE QUALITY CONTROL.

...OBSERVATIONS IN AND NEAR THE EASTERN PANHANDLE OF NEBRASKA...

CITY           SKY/WX    TMP DP  RH WIND       PRES   REMARKS
PINE RIDGE     CLOUDY    35  11  36 NW13      30.37S WCI  26
CHADRON        CLOUDY    36  13  38 NW21G33   30.39F WCI  25
ALLIANCE       MOSUNNY   31  15  52 NW21      30.34F WCI  18
SIDNEY         CLOUDY    33  19  56 NW15      30.37S WCI  23
CRESCENT LAKE    N/A     33  13  44 NW16G28     N/A  WCI  22
BIG SPRINGS      N/A     34  21  58 W8          N/A  WCI  27
$$

...OBSERVATIONS IN NORTH CENTRAL NEBRASKA...

CITY           SKY/WX    TMP DP  RH WIND       PRES   REMARKS
VALENTINE      PTSUNNY   30  16  56 NW23G32   30.30  WCI  17
THEDFORD       CLOUDY    33  16  48 NW28G38   30.30S WCI  20
AINSWORTH      SUNNY     33  15  48 NW25G38   30.27F WCI  19
O`NEILL        MOSUNNY   32  19  58 NW31G41   30.22S WCI  17
ORD            SUNNY     32  17  54 NW36G46   30.21F WCI  16
BROKEN BOW     SUNNY     33  15  47 N32G45    30.25F WCI  19
VALENTINE NWR    N/A     30  14  51 NW23G33     N/A  WCI  17
BUTTE            N/A     31  19  61 NW29G37     N/A  WCI  17
HALSEY           N/A     32  12  43 NW17G33     N/A  WCI  21
CHAMBERS         N/A     32  16  51 N18G26      N/A  WCI  20
EWING            N/A     31  18  58 NW12G25     N/A  WCI  22
$$

...OBSERVATIONS IN SOUTHWEST NEBRASKA AND FAR NORTHEAST COLORADO...

CITY           SKY/WX    TMP DP  RH WIND       PRES   REMARKS
WRAY           FAIR      35  18  48 NW17      30.39F WCI  25
HOLYOKE        FAIR      37  21  52 W15       30.38S WCI  28
IMPERIAL       MOSUNNY   33  14  45 NW18      30.36F WCI  22
OGALLALA       MOSUNNY   33  14  45 NW20G28   30.35F WCI  21
NORTH PLATTE   CLOUDY    33  15  47 NW28G35   30.32F WCI  20
MCCOOK         SUNNY     33  15  47 NW29G41   30.34F WCI  19
LEXINGTON      SUNNY     32  17  53 NW30G36   30.29F WCI  18
PAXTON           N/A     33  21  60 NW10        N/A  WCI  25
STAPLETON        N/A     32  17  55 N6G14       N/A  WCI  26
GOTHENBURG       N/A     31  14  48 NW20        N/A  WCI  19
CALLAWAY         N/A     32  17  53 N26         N/A  WCI  18
$$

...OBSERVATIONS IN CENTRAL LINCOLN COUNTY AREA...

CITY           SKY/WX    TMP DP  RH WIND       PRES   REMARKS
N.P. AIRPORT   CLOUDY    33  15  47 NW28G35   30.32F WCI  20
N.P. DOWNTOWN    N/A     33  17  51 NW15G28     N/A  WCI  23
N.P. SOUTHEAST   N/A     33  14  46 N14G26      N/A  WCI  23
N.P. HILLCREST   N/A     33  17  51 NW25G35     N/A  WCI  20
$$

...SOME OBSERVATIONS FROM AROUND THE REGION...

CITY           SKY/WX    TMP DP  RH WIND       PRES   REMARKS
DENVER         CLOUDY    36  20  52 SE3       30.40S
LARAMIE          N/A     38  23  55 NW13      30.42S WCI  30
CHEYENNE       CLOUDY    39  22  50 NW28G43   30.36F WCI  28
SCOTTSBLUFF    CLOUDY    36  19  50 NW21      30.38F WCI  25
RAPID CITY     MOSUNNY   40   5  23 NW32G43   30.32F WCI  28
BISMARCK       CLOUDY    33  17  51 NW22G31   30.27F WCI  21
PIERRE         PTSUNNY   33  18  53 NW24G35   30.28F WCI  20
WINNER         FAIR      33  17  51 NW25G36   30.28F WCI  20
SIOUX FALLS    PTSUNNY   23  13  65 N32G39    30.11S WCI   5
OMAHA          FLURRIES  27  17  66 NW30G40   30.10S WCI  11
GRAND ISLAND   SUNNY     32  17  54 NW29G38   30.21F WCI  18
KANSAS CITY    FLURRIES  31  20  63 NW23G39   30.05F WCI  18
WICHITA        MOSUNNY   42  12  29 NW36G46   30.25S
OKLAHOMA CITY  SUNNY     46   9  22 NW41G52   30.29F
LIBERAL        SUNNY     45  10  24 NW26G32   30.43S
HAYS           SUNNY     37  12  35 NW31G41   30.33R WCI  25
GOODLAND       MOSUNNY   34  15  46 N23G32    30.37F WCI  22
$$




USA.gov is the U.S. government's official web portal to all federal, state and local government web resources and services.